NOAA 20 (43013 NORAD) Tracking and Keplerian Element Data

This shows tracking and keplerian element data for the satellite.

Feedback or suggestion? Click here.




ElementValue
Catalog43013
NameNOAA 20
Epoch Orbit3478
Epoch Day202.54434354
Epoch Year2018
RAAN140.3451
Inclination98.7262
Eccentricity0.0001402
Argument of Perigee99.518
Mean Anonmoly260.6154
Mean Motion14.19543018
Decay Rate-2E-07
L11 43013U 17073A 18202.54434354 -.00000020 00000-0 11439-4 0 9999
L22 43013 98.7262 140.3451 0001402 99.5180 260.6154 14.19543018 34786

Live tracking and technical data element details for NOAA 20 (NORAD 43013). NOAA 20 can be tracked NOW for your location showing map with azimuth and elevation plus other details from your city location.

Track the satellite on the map from your city or location and see movement details for azimuth, elevation, latitude, longitude, range, height, and movement on the map or in text.







IsCatalogInMostPopularTable: catalog: 43013, numindb: 127
Update: records affected: 1



GetName: 43013 NOAA 20

Hit Count: updated at: Mon, 23 Jul 2018 07:56:51 GMT